Voltar ao catálogo

FREGAT DEB

LostUNKNOWN
NORAD 45849·DEBRIS·🇷🇺 Russia

Lançado Jul 18, 2011 de Baikonur Cosmodrome

Loading…

Próximas Passagens (próximas 24 horas)

TLE

EnvelhecendoSource: Space-Track

Época: Aug 12, 2026, 03:43 UTC

1 45849U 11037CK  26224.15520404 -.00021509  00000-0 -63745-1 0  9994
2 45849  51.3019  44.9759 1627230 253.7008  87.9317 10.90009733 17178

Acompanhe FREGAT DEB em tempo real com AllMySat

Download on the App Store